When you browse on this site, cookies collect data to enhance your experience and personalize the content and advertising you see.
Visit our Privacy Policy to learn more. By continuing to use the site, you agree to this use of cookies and data.
  • In Latvia
  • List of Countries
  • For 7 days
  • Water Temperature
  • Weather Map
  • Weather Widgets
  • user-avatar
    Login

    Hourly Weather Ahtopol

    Today, 21 August, Wednesday

    Time Temperature Precipitation Wind Pressure Humidity
    00:00 +20°C° 0 mm 2 mps 762 mmHg 66%
    01:00 +20°C° 0 mm 2 mps 762 mmHg 65%
    02:00 +20°C° 0 mm 2 mps 762 mmHg 64%
    03:00 +20°C° 0 mm 2 mps 761 mmHg 63%
    04:00 +19°C° 0 mm 2 mps 761 mmHg 63%
    05:00 +19°C° 0 mm 2 mps 761 mmHg 63%
    06:00 +21°C° 0 mm 2 mps 761 mmHg 55%
    07:00 +25°C° 0 mm 2 mps 761 mmHg 48%
    08:00 +27°C° 0 mm 2 mps 761 mmHg 40%
    09:00 +29°C° 0 mm 3 mps 761 mmHg 39%
    10:00 +30°C° 0 mm 3 mps 761 mmHg 38%
    11:00 +33°C° 0 mm 4 mps 761 mmHg 37%
    12:00 +34°C° 0 mm 5 mps 761 mmHg 35%
    13:00 +35°C° 0 mm 6 mps 760 mmHg 34%
    14:00 +36°C° 0 mm 6 mps 760 mmHg 33%
    15:00 +35°C° 0 mm 6 mps 760 mmHg 36%
    16:00 +34°C° 0 mm 6 mps 760 mmHg 40%
    17:00 +33°C° 0 mm 5 mps 760 mmHg 44%
    18:00 +30°C° 0 mm 4 mps 760 mmHg 55%
    19:00 +27°C° 0 mm 3 mps 760 mmHg 67%
    20:00 +25°C° 0 mm 2 mps 760 mmHg 78%
    21:00 +24°C° 0 mm 2 mps 760 mmHg 80%
    22:00 +24°C° 0 mm 2 mps 760 mmHg 82%
    23:00 +24°C° 0 mm 2 mps 760 mmHg 84%

    Tomorrow, 22 August, Thursday

    Time Temperature Precipitation Wind Pressure Humidity
    00:00 +24°C° 0 mm 2 mps 760 mmHg 82%
    01:00 +24°C° 0 mm 2 mps 760 mmHg 81%
    02:00 +23°C° 0 mm 2 mps 760 mmHg 79%
    03:00 +23°C° 0 mm 2 mps 760 mmHg 77%
    04:00 +23°C° 0 mm 2 mps 760 mmHg 76%
    05:00 +23°C° 0 mm 2 mps 760 mmHg 74%
    06:00 +25°C° 0 mm 3 mps 760 mmHg 64%
    07:00 +28°C° 0 mm 3 mps 761 mmHg 53%
    08:00 +30°C° 0 mm 4 mps 761 mmHg 42%
    09:00 +33°C° 0 mm 5 mps 761 mmHg 38%
    10:00 +35°C° 0 mm 6 mps 761 mmHg 33%
    11:00 +38°C° 0 mm 7 mps 761 mmHg 28%
    12:00 +38°C° 0 mm 7 mps 761 mmHg 28%
    13:00 +38°C° 0 mm 7 mps 761 mmHg 27%
    14:00 +38°C° 0 mm 7 mps 761 mmHg 26%
    15:00 +36°C° 0 mm 7 mps 761 mmHg 28%
    16:00 +35°C° 0 mm 7 mps 761 mmHg 31%
    17:00 +34°C° 0 mm 7 mps 760 mmHg 33%
    18:00 +30°C° 0 mm 5 mps 761 mmHg 43%
    19:00 +28°C° 0 mm 3 mps 761 mmHg 53%
    20:00 +25°C° 0 mm 1 mps 761 mmHg 63%
    21:00 +25°C° 0 mm 1 mps 762 mmHg 63%
    22:00 +25°C° 0 mm 2 mps 762 mmHg 63%
    23:00 +24°C° 0 mm 2 mps 762 mmHg 63%

    Day after tomorrow, 23 August, Friday

    Time Temperature Precipitation Wind Pressure Humidity
    00:00 +24°C° 0 mm 3 mps 762 mmHg 63%
    01:00 +24°C° 0 mm 3 mps 762 mmHg 62%
    02:00 +23°C° 0 mm 4 mps 761 mmHg 61%
    03:00 +23°C° 0 mm 4 mps 761 mmHg 66%
    04:00 +22°C° 0 mm 4 mps 761 mmHg 71%
    05:00 +21°C° 0 mm 4 mps 761 mmHg 75%
    06:00 +23°C° 0 mm 4 mps 762 mmHg 69%
    07:00 +25°C° 0 mm 5 mps 762 mmHg 63%
    08:00 +27°C° 0 mm 5 mps 762 mmHg 57%
    09:00 +29°C° 0 mm 5 mps 762 mmHg 49%
    10:00 +32°C° 0 mm 6 mps 762 mmHg 42%
    11:00 +35°C° 0 mm 6 mps 762 mmHg 34%
    12:00 +35°C° 0 mm 6 mps 762 mmHg 34%
    13:00 +36°C° 0 mm 6 mps 761 mmHg 34%
    14:00 +38°C° 0 mm 6 mps 761 mmHg 34%
    15:00 +35°C° 0 mm 7 mps 761 mmHg 38%
    16:00 +34°C° 0 mm 7 mps 761 mmHg 43%
    17:00 +33°C° 0 mm 7 mps 760 mmHg 48%
    18:00 +30°C° 0 mm 5 mps 761 mmHg 57%
    19:00 +28°C° 0 mm 4 mps 761 mmHg 66%
    20:00 +26°C° 0 mm 2 mps 761 mmHg 75%
    21:00 +25°C° 0 mm 2 mps 761 mmHg 76%
    22:00 +25°C° 0 mm 2 mps 761 mmHg 77%
    23:00 +24°C° 0 mm 2 mps 761 mmHg 78%

    24 August, Saturday

    Time Temperature Precipitation Wind Pressure Humidity
    00:00 +24°C° 0 mm 2 mps 761 mmHg 77%
    01:00 +24°C° 0 mm 2 mps 760 mmHg 76%
    02:00 +24°C° 0 mm 2 mps 760 mmHg 75%
    03:00 +24°C° 0 mm 3 mps 760 mmHg 74%
    04:00 +24°C° 0 mm 3 mps 760 mmHg 73%
    05:00 +24°C° 0 mm 3 mps 761 mmHg 73%
    06:00 +26°C° 0 mm 4 mps 761 mmHg 66%
    07:00 +27°C° 0 mm 5 mps 761 mmHg 59%
    08:00 +29°C° 0 mm 6 mps 761 mmHg 52%
    09:00 +32°C° 0 mm 6 mps 761 mmHg 47%
    10:00 +34°C° 0 mm 7 mps 761 mmHg 42%
    11:00 +36°C° 0 mm 7 mps 761 mmHg 37%
    12:00 +36°C° 0 mm 7 mps 761 mmHg 36%
    13:00 +36°C° 0 mm 7 mps 760 mmHg 36%
    14:00 +36°C° 0 mm 7 mps 760 mmHg 35%
    15:00 +35°C° 0 mm 7 mps 760 mmHg 38%
    16:00 +34°C° 0 mm 7 mps 760 mmHg 41%
    17:00 +33°C° 0 mm 7 mps 760 mmHg 44%
    18:00 +30°C° 0 mm 6 mps 760 mmHg 56%
    19:00 +27°C° 0 mm 4 mps 760 mmHg 68%
    20:00 +25°C° 0 mm 3 mps 760 mmHg 80%
    21:00 +24°C° 0 mm 3 mps 760 mmHg 83%
    22:00 +24°C° 0 mm 2 mps 760 mmHg 86%
    23:00 +23°C° 0 mm 2 mps 760 mmHg 89%

    25 August, Sunday

    Time Temperature Precipitation Wind Pressure Humidity
    00:00 +23°C° 0 mm 2 mps 760 mmHg 88%
    01:00 +23°C° 0 mm 2 mps 760 mmHg 86%
    02:00 +23°C° 0 mm 2 mps 759 mmHg 85%
    03:00 +21°C° 0 mm 2 mps 759 mmHg 84%
    04:00 +21°C° 0 mm 2 mps 759 mmHg 83%
    05:00 +21°C° 0 mm 2 mps 759 mmHg 83%
    06:00 +24°C° 0 mm 2 mps 759 mmHg 74%
    07:00 +26°C° 0 mm 3 mps 760 mmHg 65%
    08:00 +28°C° 0 mm 3 mps 760 mmHg 57%
    09:00 +32°C° 0 mm 4 mps 760 mmHg 49%
    10:00 +34°C° 0 mm 5 mps 760 mmHg 42%
    11:00 +36°C° 0 mm 5 mps 760 mmHg 35%
    12:00 +36°C° 0 mm 6 mps 760 mmHg 34%
    13:00 +36°C° 0 mm 6 mps 759 mmHg 34%
    14:00 +36°C° 0 mm 7 mps 759 mmHg 33%
    15:00 +35°C° 0 mm 7 mps 759 mmHg 37%
    16:00 +34°C° 0 mm 7 mps 759 mmHg 42%
    17:00 +33°C° 0 mm 7 mps 759 mmHg 46%
    18:00 +29°C° 0 mm 5 mps 759 mmHg 58%
    19:00 +27°C° 0 mm 4 mps 760 mmHg 71%
    20:00 +25°C° 0 mm 3 mps 760 mmHg 83%
    21:00 +24°C° 0 mm 3 mps 760 mmHg 85%
    22:00 +24°C° 0 mm 2 mps 760 mmHg 87%
    23:00 +23°C° 0 mm 2 mps 760 mmHg 89%

    26 August, Monday

    Time Temperature Precipitation Wind Pressure Humidity
    00:00 +23°C° 0 mm 2 mps 760 mmHg 88%
    01:00 +23°C° 0 mm 2 mps 760 mmHg 88%
    02:00 +21°C° 0 mm 2 mps 760 mmHg 87%
    03:00 +21°C° 0 mm 2 mps 760 mmHg 86%
    04:00 +21°C° 0 mm 2 mps 760 mmHg 85%
    05:00 +21°C° 0 mm 2 mps 760 mmHg 84%
    06:00 +24°C° 0 mm 2 mps 760 mmHg 73%
    07:00 +26°C° 0 mm 2 mps 760 mmHg 61%
    08:00 +28°C° 0 mm 3 mps 760 mmHg 50%
    09:00 +30°C° 0 mm 4 mps 760 mmHg 45%
    10:00 +33°C° 0 mm 5 mps 760 mmHg 40%
    11:00 +35°C° 0 mm 6 mps 760 mmHg 35%
    12:00 +35°C° 0 mm 6 mps 760 mmHg 35%
    13:00 +35°C° 0 mm 6 mps 760 mmHg 35%
    14:00 +35°C° 0 mm 6 mps 759 mmHg 35%
    15:00 +34°C° 0 mm 6 mps 759 mmHg 38%
    16:00 +33°C° 0 mm 5 mps 759 mmHg 41%
    17:00 +33°C° 0 mm 5 mps 759 mmHg 44%
    18:00 +29°C° 0 mm 4 mps 759 mmHg 58%
    19:00 +26°C° 0 mm 3 mps 759 mmHg 72%
    20:00 +24°C° 0 mm 2 mps 760 mmHg 86%
    21:00 +23°C° 0 mm 2 mps 760 mmHg 88%
    22:00 +23°C° 0 mm 2 mps 760 mmHg 89%
    23:00 +23°C° 0 mm 1 mps 760 mmHg 91%
    Show more